SCOUT G-1 DEB

Satellite information

Favourite Embed

Satellite Type and Status

DEBRISIN ORBIT

Key statistics

Satellite SCOUT G-1 DEB at a glance.

Uptime

13929

Days in orbit

Revolutions

≈ 14.0

Per day

Orbit

SSO

Sun Synchronous Orbit

Inclination

90.3

Latest

Satellite identification and parameters

Extended collection of information and parameters for SCOUT G-1 DEB.

Object identification

Identified? True

Debris? True

Object name: SCOUT G-1 DEB

International designator: 1987-080K

Object number (NORAD): 29207

Object ID (CCSDS): 29207

Country: UNITED STATES OF AMERICA (US)

Current information (Y/N): Y

RCS size: SMALL

Orbital parameters

Period: 103.214 minutes

Inclination: 90.2817 deg

SMA: 7288.758 km

Apoapsis: 988.53 km

Periapsis: 832.715 km

RAAN: 41.863 deg

Eccentricy: 0.01068873

Argument of periapsis: 294.201 deg

Mean anomaly: 64.8023 deg

Mean motion: 13.95155133 rev/day

Mean motion (dot): 0.00004977 rev/day2

B* drag term: 0.0035117791 1/REarth

Two-line elements (TLE)

Creation date: Nov. 2, 2025, 5:34 p.m.

Reference frame: TEME

Reference center: EARTH

Epoch: Nov. 1, 2025, 11:59 p.m. UTC

TLE line 0: 0 SCOUT G-1 DEB

TLE line 1: 1 29207U 87080K 25305.99969616 .00004977 00000-0 35118-2 0 9990

TLE line 2: 2 29207 90.2817 41.8630 0106887 294.2010 64.8023 13.95155133941631

Live tracking on map

Real-time ground track for satellite SCOUT G-1 DEB.

In-orbit conjunctions

A list of the most updated potential collisions computed for object SCOUT G-1 DEB.

Target Orbit TCA Probability of collision Miss distance Type
COSMOS 2251 DEB LEO 2024-11-12 12:12:43 0.0001383317 244.0 (m) DEBRIS

Associated space launch

The Transit-O series of satellites that closely followed the design of Transit 5C-1 were also called “Oscars” (Oscar is the phonetic alphabet for “O”, i. e., operational). They were also called NNS (Navy Navigation Satellite) or shortened NavSat.

SCOUT G-1 DEB was lifted into orbit during the mission ‘Scout G-1 | Transit-O 27,29’, on board a Scout G-1 space rocket.

The launch took place on Sept. 16, 1987, 7:22 p.m. from Space Launch Complex 5.

For more information about the launch, click the button.

Launch to space Scout G-1 | Transit-O 27,29
Scout G-1 | Transit-O 27,29

Agency: N/A

Status: Launch Successful

Launch date: Sept. 16, 1987, 7:22 p.m. UTC

Rocket: Scout G-1

Launch pad: Space Launch Complex 5

Location: Vandenberg SFB, CA, USA

...

Latest news about this satellite

There are no fresh news available about this satellite. Check back as we update our databases every day.


Newsletter sign-up

Weekly statistics, charts and insights to help you stay on top of the space industry.